Aéroport int. de Vancouver, Colombie-Britannique

Conditions des dernières 24 heures

Date / Heure
(HAP)
Conditions Temp
(°F)
Humidité
(%)
Point de rosée
(°F)
Vent
(mph)
Pression (pouces) Visibilité
(miles)
26 mai 2015
20:00 Généralement nuageux 65   67 54 SSO 7 30.0 20
19:00 Généralement ensoleillé 65   70 55 SO 6 30.0 20
18:00 Partiellement nuageux 65   70 55 SO 7 30.0 20
17:00 Partiellement nuageux 65   71 55 SO 9 30.0 20
16:00 Partiellement nuageux 65   68 55 OSO 6 30.0 20
15:00 Partiellement nuageux 65   66 53 OSO 6 30.0 20
14:00 Généralement nuageux 64 70 55 OSO 9 30.1 15
13:00 Généralement nuageux 63 78 57 SO 8 30.1 15
12:00 Généralement nuageux 61 78 55 OSO 7 30.1 15
11:00 Généralement nuageux 61 78 54 O 6 30.1 15
10:00 Généralement nuageux 59 83 54 OSO 5 30.1 15
9:00 Généralement nuageux 59 84 54 SO 5 30.1 15
8:00 Généralement nuageux 58   85 53 OSO 5 30.1 15
7:00 Généralement nuageux 58   83 53 SSO 3 30.0 15
6:00 Généralement nuageux 58   84 53 E 3 30.0 15
5:00 Généralement nuageux 58   83 53 ESE 5 30.0 15
4:00 Généralement nuageux 58   79 51 ESE 5 30.0 15
3:00 Généralement nuageux 58   79 51 E 5 30.0 15
2:00 Généralement nuageux 58   78 52 E 5 30.0 15
1:00 Généralement nuageux 58   77 51 ESE 6 30.0 15
0:00 Généralement nuageux 58   81 53 E 7 30.0 15
25 mai 2015
23:00 Généralement nuageux 58   75 51 SE 7 30.0 15
22:00 Généralement nuageux 59 76 51 ESE 7 30.0 15
21:00 Généralement nuageux 59 74 51 ESE 10 30.0 15
20:00 Généralement nuageux 61 70 51 E 10 30.0 15
N.D. non disponible
↑ température la plus haute
↓ température la plus basse

Si vous désirez plus de données historiques sur les conditions météo, s.v.p. visitez Données climatologiques en ligne.

Ce que nous faisons

Date de modification :